Etusivu
METAR-TAF:

METAR-TAF

Lentoasemat :

Isbell Field

Fort Payne, Alabama, Yhdysvallat

Leveyspiiri: 34-28-25N, Pituuspiiri: 085-43-17W, korkeus merenpinnasta: 267 m

Tämänhetkinen sää

Tämä raportti tehtiin 9 minuuttia sitten, kello 06.55 UTC
Tuuli 3 kn pohjoisesta/koillisesta
Lämpötila 18°C
Kosteus 100%
Ilmanpaine 1017 hPa
Näkyvyys: 16.1 km
selkeää

METAR: K4A9 170655Z AUTO 02003KT 10SM CLR 18/18 A3002 RMK AO2 T01840176

Aika: 02:04 (07:04 UTC)


TAF: puuttuu

Säähavainnot ja -ennusteet yli 4000 lentoasemalta (METAR- ja TAF-raportit).

Käytössä olevat sääasemat on merkitty karttaan keltaisilla ja punaisilla pisteillä.

Aseta hiiri pisteen päälle nähdäksesi sääaseman nimen.

Klikkaa sitten nähdäksesi säähavainnot ja -ennusteet.

Kartan vaihtaminen: klikkaa mustalla rastilla varustettuja vihreitä pisteitä, niin voit zoomata sisään; viivalla varustettua vihreää pistettä, niin voit zoomata ulos tai vihreitä nuolia, niin pääset viereisille kartoille.


METAR-TAF: